Vertical_Velocity
1 0 1 0 -2 -2 -2 0 -2 -1 -1 -2 -1 -1 -1 -2 0 0 1 -2 2 -1 0 -2 -2 2 -2 2 1 1 -1 4 1 -9 1 -2 -4 -2 -1 5 3 1 -3
0 -1 -2 -4 -3 -3 -1 -1 1 -1 -1 -1 -1 -1 -1 -2 -1 1 -0 0 -1 -2 0 -2 -2 1 -0 1 2 -0 1 1 7 -6 -5 -1 0 2 3 1 4 6 3
-3 -2 -2 -2 -2 -1 -2 -1 1 -2 -1 -2 -0 -1 -1 -2 -3 2 1 -0 0 -2 0 -1 -2 0 -2 -0 2 -0 1 1 1 5 -9 -0 -1 0 6 -0 4 -3 -0
-2 -1 -2 -2 -2 -2 -1 -1 -2 1 -2 -1 1 -1 0 -1 0 1 1 0 0 0 -0 1 0 0 -1 -1 1 -0 1 0 -0 -1 -7 -4 2 2 11 5 2 -3 1
-1 -1 -2 -3 -2 -3 -2 -2 1 -1 -1 0 -3 -1 1 -0 0 -2 1 -1 0 -1 -1 0 -0 1 -3 -0 2 -2 1 1 0 -0 -4 -0 -2 1 -1 6 -4 1 4
-3 -2 -1 -2 -1 -1 -2 -1 -3 -3 -1 0 0 -1 -2 0 1 2 4 -1 -0 -0 -3 1 -2 1 -1 -1 1 6 8 -2 -1 4 -0 -1 2 1 -3 10 1 2 2
-2 -1 -3 -0 -1 -2 -1 -2 -3 -1 -3 -0 -0 -1 -1 -1 1 2 2 5 5 4 3 2 4 2 4 -1 -2 1 3 3 2 3 2 -4 -2 2 0 13 7 -8 6
-0 -3 0 -1 -4 -3 -2 -3 -1 -1 -0 -3 -1 -0 -1 -1 0 2 0 2 -1 1 -2 -3 -2 -5 -0 -0 -3 -2 -2 -1 -2 -1 3 5 -6 2 1 0 7 16 1
-3 -2 -1 -3 -6 -4 -3 -2 -1 -5 -0 -0 -1 0 1 -3 1 1 5 0 -1 -1 -1 -2 -1 -4 2 -1 1 -0 4 -3 -1 -3 3 2 0 -1 4 -3 5 -0 7
-3 -1 -3 -4 -2 -3 -2 -4 -3 0 -0 -1 -1 4 1 -1 2 -0 5 3 1 0 -1 -1 0 -0 -3 -2 2 -1 -0 -6 -1 -5 -7 -3 1 -3 2 -1 4 3 4
-1 -1 -3 -1 -2 -2 -3 -1 -4 -2 2 -1 -1 -1 -0 3 -4 -1 3 3 1 -3 -3 -2 -3 -1 2 2 8 11 -5 3 -1 1 -3 -2 0 -2 -3 3 2 -2 7
0 -1 -1 -1 -4 -3 -2 -2 1 1 -1 -2 -3 -5 -1 -2 1 -2 2 5 4 7 3 -0 -3 -1 -2 -3 3 0 2 6 -2 -1 1 0 -0 1 -1 -3 2 9 3
-2 -1 -1 -3 -3 -2 -1 -2 -1 1 -0 -3 -1 -4 -6 -1 0 4 2 1 2 2 -1 -3 1 -0 -1 0 -2 -2 1 7 7 -1 -1 -3 -2 -2 2 -1 -1 0 0
-2 -2 -4 -5 -3 1 1 -0 3 1 -3 -3 -0 -0 -3 -5 -2 -0 -2 -2 3 1 2 1 1 1 4 -3 -1 -0 6 3 -1 -2 -1 -4 1 2 1 1 0 4 4
-2 -4 -5 -4 -0 -0 -2 -3 -1 8 6 6 2 2 1 -6 -2 5 8 2 0 -2 0 -1 -3 1 -3 -2 -3 -1 3 -0 5 -3 3 -3 0 3 -0 -0 -0 3 4
-4 -6 -2 -2 1 -1 -1 -7 10 7 -0 2 3 10 1 7 5 5 2 2 2 4 6 4 -1 3 -3 -1 -1 -1 2 1 0 1 1 -1 -1 -0 -0 1 4 6 3
-3 -4 -1 1 -1 -2 -3 -3 -5 -9 7 -4 -4 -1 2 5 5 3 -2 -1 -1 1 1 2 0 -1 -2 0 -1 -0 -1 -2 -2 2 2 -1 3 5 1 1 1 2 3
0 2 1 -0 -2 -0 -2 -1 1 -4 -11 -18 2 -1 -2 1 2 1 0 -1 -3 1 2 1 1 2 1 -2 3 2 -2 0 -1 2 -1 -1 -0 1 2 0 1 0 4
-5 -2 -2 -1 1 4 1 -1 1 -2 -0 -3 -9 -5 -0 5 1 1 1 2 2 1 1 0 1 0 -1 0 0 -0 -1 -1 -1 -1 -2 -1 -2 -1 1 2 1 1 2
-0 2 2 -1 -1 -1 -2 -3 0 -1 -4 -2 -3 1 0 -5 -7 -4 0 3 1 2 2 1 1 1 1 1 1 1 0 4 1 2 -1 -1 -2 -1 0 1 3 -3 3
-1 -1 1 2 1 -0 -4 3 1 -1 -2 -2 2 3 9 3 1 2 0 -1 1 2 1 1 1 1 1 2 2 1 1 0 1 1 -0 -0 -2 -3 2 3 2 1 -1
-0 -3 -1 -2 -1 -4 -1 2 0 -1 -2 2 -0 -1 2 0 2 2 1 2 3 3 3 2 1 1 0 1 1 0 1 1 0 1 2 2 -1 -0 2 0 0 3 1
-2 -3 2 -1 -0 1 -0 -1 0 -3 -1 2 1 0 -2 0 2 1 5 2 3 2 4 2 1 1 1 0 1 2 2 1 0 1 1 1 -1 -1 0 -1 -0 -1 -0
-4 -1 1 -0 -5 1 -3 1 -1 0 0 0 1 1 1 2 3 1 4 3 0 3 5 2 0 2 2 1 1 1 2 2 3 3 3 -0 -1 1 -1 1 1 0 -0
-3 -0 -0 -1 -5 -3 -2 -1 -2 -0 -2 -1 2 1 2 1 2 1 3 3 3 3 4 5 1 1 1 2 2 1 2 2 2 1 1 4 1 1 0 1 0 1 0
-1 0 0 -0 -1 -1 0 -2 -3 -0 -2 -2 3 2 3 0 2 3 1 4 2 3 5 6 2 0 2 2 2 2 2 2 2 3 2 2 0 1 3 3 3 1 1
Height
1487 1483 1478 1474 1468 1463 1457 1452 1447 1441 1436 1431 1427 1422 1418 1414 1410 1406 1403 1400 1399 1396 1395 1394 1391 1390 1389 1389 1390 1392 1393 1394 1392 1390 1390 1392 1391 1390 1390 1392 1392 1394 1398
1482 1477 1473 1467 1462 1457 1452 1446 1441 1435 1430 1426 1421 1416 1411 1407 1404 1399 1396 1394 1392 1390 1389 1387 1385 1385 1384 1384 1384 1385 1387 1389 1388 1387 1386 1388 1390 1390 1391 1390 1392 1394 1394
1476 1471 1466 1461 1456 1450 1444 1439 1434 1428 1423 1419 1414 1409 1404 1400 1396 1393 1389 1386 1385 1383 1383 1382 1381 1380 1379 1379 1379 1380 1382 1383 1384 1385 1384 1386 1388 1388 1390 1391 1390 1390 1395
1470 1465 1460 1455 1450 1444 1439 1433 1427 1422 1416 1411 1407 1401 1396 1392 1388 1385 1382 1380 1379 1378 1377 1377 1376 1375 1374 1374 1375 1375 1377 1378 1380 1382 1384 1384 1386 1388 1388 1388 1391 1392 1395
1464 1459 1455 1449 1444 1438 1433 1427 1421 1415 1410 1404 1398 1394 1389 1384 1381 1377 1376 1375 1373 1372 1371 1371 1371 1370 1370 1370 1371 1371 1373 1375 1377 1380 1381 1381 1383 1385 1386 1388 1390 1394 1393
1459 1454 1449 1444 1439 1432 1426 1420 1414 1408 1402 1396 1391 1386 1381 1377 1374 1372 1371 1369 1367 1366 1365 1365 1365 1365 1365 1365 1366 1368 1370 1371 1373 1375 1377 1378 1380 1382 1385 1386 1388 1391 1392
1455 1450 1445 1438 1432 1427 1421 1414 1407 1400 1394 1389 1383 1378 1373 1370 1366 1366 1365 1363 1361 1360 1359 1359 1359 1359 1359 1360 1360 1362 1363 1365 1368 1371 1372 1374 1377 1380 1381 1383 1386 1390 1392
1450 1446 1440 1434 1428 1422 1414 1407 1400 1394 1388 1381 1376 1372 1366 1363 1361 1359 1358 1356 1353 1352 1352 1352 1352 1352 1354 1355 1355 1356 1357 1360 1362 1364 1366 1370 1373 1376 1378 1379 1385 1387 1391
1447 1442 1436 1429 1422 1415 1408 1401 1394 1387 1381 1375 1371 1365 1361 1356 1353 1352 1351 1348 1346 1345 1345 1345 1346 1346 1347 1349 1350 1351 1352 1354 1357 1359 1361 1365 1368 1371 1374 1377 1380 1383 1386
1443 1438 1432 1425 1417 1409 1402 1395 1388 1383 1376 1370 1365 1361 1356 1351 1348 1345 1344 1343 1341 1340 1339 1339 1340 1340 1341 1343 1345 1346 1347 1349 1352 1354 1355 1358 1361 1365 1370 1374 1378 1381 1387
1438 1433 1427 1420 1412 1405 1397 1391 1383 1377 1371 1366 1360 1355 1350 1347 1342 1340 1339 1338 1336 1334 1334 1333 1334 1335 1336 1338 1339 1341 1342 1345 1348 1350 1353 1355 1359 1363 1367 1371 1375 1378 1382
1434 1429 1422 1415 1408 1401 1393 1387 1380 1373 1367 1361 1355 1349 1345 1341 1338 1335 1333 1333 1331 1330 1328 1327 1328 1329 1330 1331 1333 1335 1337 1340 1342 1345 1348 1350 1354 1358 1363 1367 1371 1374 1378
1430 1424 1418 1411 1403 1398 1391 1384 1376 1370 1363 1357 1352 1345 1340 1337 1333 1330 1328 1326 1324 1323 1322 1321 1322 1322 1323 1325 1327 1329 1332 1334 1336 1339 1341 1345 1348 1353 1359 1363 1367 1371 1374
1426 1420 1413 1406 1400 1395 1389 1383 1374 1367 1360 1355 1350 1344 1338 1332 1328 1324 1321 1319 1318 1316 1316 1315 1315 1316 1316 1317 1320 1322 1324 1327 1331 1334 1337 1341 1345 1348 1352 1357 1362 1366 1370
1423 1416 1410 1403 1397 1390 1386 1380 1373 1367 1361 1355 1348 1343 1335 1329 1325 1321 1319 1315 1312 1310 1309 1308 1308 1308 1309 1310 1312 1314 1318 1321 1325 1329 1333 1337 1341 1345 1349 1353 1357 1362 1366
1420 1414 1407 1401 1394 1387 1380 1374 1372 1365 1358 1353 1346 1340 1333 1328 1322 1317 1312 1308 1305 1303 1301 1300 1300 1301 1302 1303 1305 1308 1312 1316 1319 1323 1328 1333 1337 1342 1346 1350 1355 1359 1362
1418 1412 1406 1399 1392 1385 1378 1371 1359 1355 1354 1349 1342 1336 1329 1324 1317 1311 1305 1299 1296 1293 1291 1291 1291 1292 1295 1297 1299 1302 1306 1310 1314 1319 1323 1329 1333 1338 1342 1346 1350 1355 1359
1418 1413 1406 1398 1392 1385 1378 1371 1363 1354 1344 1339 1337 1331 1325 1319 1312 1305 1299 1293 1288 1286 1284 1283 1283 1284 1287 1289 1293 1296 1300 1304 1308 1313 1319 1324 1330 1335 1339 1343 1347 1352 1356
1416 1411 1405 1398 1393 1386 1378 1371 1363 1356 1349 1342 1333 1327 1322 1317 1308 1301 1295 1290 1285 1282 1279 1277 1277 1277 1279 1281 1284 1289 1293 1297 1302 1307 1313 1320 1326 1331 1336 1340 1344 1350 1355
1416 1411 1404 1398 1392 1384 1377 1369 1363 1356 1349 1343 1335 1328 1321 1314 1305 1298 1293 1288 1283 1279 1276 1274 1272 1272 1273 1275 1278 1282 1287 1292 1297 1303 1309 1315 1322 1327 1332 1337 1342 1345 1351
1415 1411 1405 1398 1392 1384 1377 1371 1364 1357 1351 1344 1338 1331 1325 1316 1307 1300 1292 1286 1281 1277 1274 1271 1270 1269 1270 1272 1275 1279 1283 1288 1293 1299 1305 1311 1318 1324 1330 1335 1339 1344 1349
1416 1411 1405 1398 1392 1384 1379 1372 1364 1358 1353 1347 1339 1332 1325 1317 1309 1301 1294 1287 1281 1277 1273 1271 1269 1268 1269 1270 1273 1276 1280 1284 1289 1295 1301 1308 1315 1322 1327 1332 1337 1343 1348
1416 1413 1406 1399 1393 1387 1380 1373 1366 1360 1355 1348 1341 1334 1326 1319 1312 1305 1298 1291 1284 1278 1274 1271 1270 1269 1269 1270 1272 1275 1279 1283 1288 1293 1299 1305 1312 1319 1325 1331 1336 1341 1347
1416 1413 1407 1400 1394 1388 1381 1375 1368 1363 1357 1351 1344 1337 1330 1323 1316 1310 1303 1296 1290 1283 1277 1274 1272 1271 1271 1272 1274 1276 1279 1283 1288 1293 1298 1304 1311 1317 1323 1329 1335 1341 1347
1416 1412 1407 1401 1396 1390 1384 1377 1371 1366 1360 1353 1348 1341 1335 1328 1321 1315 1309 1302 1297 1290 1284 1280 1276 1275 1275 1275 1276 1278 1280 1284 1288 1293 1298 1304 1309 1315 1321 1327 1333 1340 1347
1416 1413 1408 1403 1398 1393 1387 1380 1375 1369 1362 1356 1351 1345 1339 1333 1327 1321 1315 1309 1304 1299 1293 1288 1284 1281 1280 1279 1280 1281 1283 1286 1289 1294 1298 1304 1309 1315 1321 1327 1334 1341 1349